Regional Weather Roundup
Issued by NWS Bismarck, ND

Home | Current Version | Previous Version | Text Only | Print | Product List | Glossary On
Versions: 1 2 3 4 5 6 7 8 9 10 11 12 13 14 15 16 17 18 19 20 21 22 23 24 25 26 27 28 29 30 31 32 33 34 35 36 37 38 39 40 41 42 43 44 45 46 47 48 49 50
946
ASUS43 KBIS 241510
RWRBIS

NWR BROADCAST TEXT
NATIONAL WEATHER SERVICE BISMARCK ND
1000 AM CDT WED MAY 24 2017

NOTE: "FAIR" INDICATES FEW OR NO CLOUDS BELOW 12,000 FEET WITH NO
SIGNIFICANT WEATHER AND/OR OBSTRUCTIONS TO VISIBILITY.


CITY           SKY/WX    TMP DP  RH WIND       PRES   REMARKS
WILLISTON      FAIR      62  37  39 SE23G39   29.53F
MINOT          FAIR      61  34  36 SE20G37   29.67F
MINOT AFB      FAIR      61  35  37 S24G30    29.65F
BISMARCK       FAIR      59  42  53 SE15      29.72F
DICKINSON      FAIR      56  34  43 S29G36    29.61F
GARRISON         N/A     57  38  48 S16       29.66F
HETTINGER ARPT FAIR      57  36  45 S21       29.67F
JAMESTOWN      FAIR      54  44  69 S12       29.77F
HAZEN          FAIR      59  36  41 S23G32    29.67F
LINTON         FAIR      55  45  67 S15       29.75F
MANDAN         FAIR      55  39  54 SE16      29.72F
STANLEY        FAIR      55  36  47 S26       29.64F
TIOGA          FAIR      57  36  44 S28G37    29.60F
WATFORD CITY   FAIR      59  37  44 S23       29.58F
$$

CITY           SKY/WX    TMP DP  RH WIND       PRES   REMARKS
GRAND FORKS    FAIR      60  45  57 SE12      29.79F
GRAND FORKS AF FAIR      59  43  56 SE12      29.79F
DEVILS LAKE    FAIR      56  41  57 S14G21    29.76
FARGO          FAIR      57  45  64 SE9       29.80F
CAVALIER       FAIR      59  43  55 S15       29.78F HAZE
GRAFTON        FAIR      59  43  55 SE14      29.80F
GWINNER        PTSUNNY   55  46  71 MISG      29.79F
LANGDON        FAIR      59  43  55 S18       29.77F
ROLLA          FAIR      59  34  38 S21G28    29.73F
$$

CITY           SKY/WX    TMP DP  RH WIND       PRES   REMARKS
ABERDEEN       PTSUNNY   57  39  51 S13       29.80F
MOBRIDGE       FAIR      55  40  56 S13       29.72F
BUFFALO          N/A     59  38  45 SE25G37   29.55F
RAPID CITY     FAIR      55  40  56 S20       29.69F
GLASGOW        FAIR      65  38  36 S20G28    29.34F
SIDNEY         FAIR      63  38  39 S30G36    29.50F
WOLF POINT     FAIR      66  38  35 S10G18    29.40F
GLENDIVE       FAIR      64  36  35 S28G35    29.49F
MILES CITY     FAIR      61  39  44 S21       29.47F
BAKER          FAIR      58  37  45 SE29G37   29.56F
$$

CITY           SKY/WX    TMP DP  RH WIND       PRES   REMARKS
BILLINGS       FAIR      68  38  33 SW16      29.46F
GREAT FALLS    FAIR      64  28  25 SW33G44   29.44R
REGINA         PTSUNNY   61  36  39 SE30G40   29.37F
ESTEVAN        MOSUNNY   59  37  44 SE33G43   29.53F
$$





USA.gov is the U.S. government's official web portal to all federal, state and local government web resources and services.